GW1126 Weather Reports


time (UTC)temp
C
wind
direction
speed
KPH
gust
KPH
rain 1hr
cm
rain 24hr
cm
rain mn
cm
humidity
%
barometer
mb
20260504160124 21 181 0.0 0.0 0.00 0.00 0.00 40 1008.5
20260504151051 18 174 0.0 0.0 0.00 0.00 0.00 45 1008.8
20260504150549 18 143 0.0 0.0 0.00 0.00 0.00 46 1009.0
20260504141015 13 231 0.0 0.0 0.00 0.00 0.00 62 1008.9
20260504140511 12 229 0.0 0.0 0.00 0.00 0.00 62 1008.9
20260504130436 8 243 0.0 0.0 0.00 0.00 0.00 79 1008.9
20260504110322 6 140 0.0 0.0 0.00 0.00 0.00 84 1008.7
20260504100234 6 172 0.0 0.0 0.00 0.00 0.00 81 1008.8
20260504081628 8 145 0.0 0.0 0.00 0.00 0.00 76 1009.4
20260504081124 8 127 0.0 0.0 0.00 0.00 0.00 76 1009.5
20260504080621 8 148 0.0 0.0 0.00 0.00 0.00 75 1009.7
20260504080117 8 147 0.0 0.0 0.00 0.00 0.00 75 1009.6
20260504050433 13 156 0.0 0.0 0.00 0.00 0.00 54 1011.2
20260504045930 14 156 0.0 0.0 0.00 0.00 0.00 53 1011.5
20260504045426 14 157 0.0 0.0 0.00 0.00 0.00 52 1011.4
20260504044922 15 157 0.0 0.0 0.00 0.00 0.00 51 1011.4
20260504044420 15 151 0.0 0.0 0.00 0.00 0.00 50 1011.6
20260504043917 15 125 0.0 0.0 0.00 0.00 0.00 50 1011.4
20260504043414 15 113 0.0 0.0 0.00 0.00 0.00 51 1011.6
20260504042912 14 109 0.0 0.0 0.00 0.00 0.00 51 1012.0
20260504042408 14 29 0.0 0.0 0.00 0.00 0.00 52 1012.2
20260504041904 14 23 0.0 0.0 0.00 0.00 0.00 53 1012.3
20260504041401 14 88 0.0 0.0 0.00 0.00 0.00 52 1012.2
20260504040856 14 31 0.0 0.0 0.00 0.00 0.00 52 1012.2
20260504040354 14 47 0.0 0.0 0.00 0.00 0.00 52 1012.2
20260504035850 15 60 0.0 0.0 0.00 0.00 0.00 52 1011.9
20260504035348 15 98 0.0 0.0 0.00 0.00 0.00 52 1011.8
20260504034844 15 98 0.0 0.0 0.00 0.00 0.00 51 1011.9
20260504034342 15 97 0.0 0.0 0.00 0.00 0.00 50 1011.8
20260504033839 15 115 0.0 0.0 0.00 0.00 0.00 50 1011.8
20260504033337 15 136 0.0 0.0 0.00 0.00 0.00 49 1011.9
20260504032833 15 95 0.0 0.0 0.00 0.00 0.00 49 1011.8
20260504032330 16 139 0.0 0.0 0.00 0.00 0.00 48 1011.6
20260504031827 16 140 0.0 0.0 0.00 0.00 0.00 47 1011.5
20260504031324 16 140 0.0 0.0 0.00 0.00 0.00 45 1011.5
20260504030820 16 140 0.0 0.0 0.00 0.00 0.00 46 1011.4
20260504030318 16 140 0.0 0.0 0.00 0.00 0.00 44 1011.4
20260504025814 16 140 0.0 0.0 0.00 0.00 0.00 45 1011.4
20260504025311 17 141 0.0 0.0 0.00 0.00 0.00 44 1011.4
20260504024808 17 141 0.0 0.0 0.00 0.00 0.00 43 1011.3
20260504024304 17 132 0.0 0.0 0.00 0.00 0.00 43 1011.1
20260504023801 17 133 0.0 0.0 0.00 0.00 0.00 43 1011.1
20260504023257 18 132 0.0 0.0 0.00 0.00 0.00 41 1011.1
20260504022754 18 124 0.0 0.0 0.00 0.00 0.00 40 1011.0
20260504022250 18 133 0.0 0.0 0.00 0.00 0.00 40 1011.1
20260504021747 18 117 0.0 0.0 0.00 0.00 0.00 39 1010.9
20260504021244 19 118 0.0 0.0 0.00 0.00 0.00 39 1010.9
20260504020741 19 144 0.0 0.0 0.00 0.00 0.00 39 1010.8
20260504020238 19 138 0.0 0.0 0.00 0.00 0.00 38 1010.7
20260504015734 20 132 0.0 0.0 0.00 0.00 0.00 38 1010.9
20260504015231 20 124 0.0 0.0 0.00 0.00 0.00 37 1010.8
20260504014726 20 120 0.0 0.0 0.00 0.00 0.00 36 1010.8
20260504014223 20 134 0.0 0.0 0.00 0.00 0.00 36 1011.1
20260504013721 20 111 0.0 0.0 0.00 0.00 0.00 35 1010.9
20260504013218 21 141 0.0 0.0 0.00 0.00 0.00 34 1011.3
20260504012714 21 126 0.0 0.0 0.00 0.00 0.00 33 1010.9
20260504012213 21 144 0.0 0.0 0.00 0.00 0.00 33 1011.2
20260504011709 21 95 0.0 0.0 0.00 0.00 0.00 33 1011.2
20260504011206 21 115 0.0 0.0 0.00 0.00 0.00 32 1011.1
20260504010702 21 122 0.0 0.0 0.00 0.00 0.00 33 1011.1
20260504010157 22 127 0.0 0.0 0.00 0.00 0.00 31 1011.3
20260504005654 22 141 0.0 1.6 0.00 0.00 0.00 31 1011.1
20260504005151 22 129 0.0 0.0 0.00 0.00 0.00 31 1011.5
20260504004649 22 128 0.0 0.0 0.00 0.00 0.00 30 1011.3
20260504004146 22 125 0.0 0.0 0.00 0.00 0.00 30 1011.5
20260504003642 22 118 0.0 0.0 0.00 0.00 0.00 30 1011.4
20260504003139 22 134 0.0 0.0 0.00 0.00 0.00 30 1011.5
20260504002636 22 117 0.0 0.0 0.00 0.00 0.00 30 1011.8
20260504002134 22 148 0.0 0.0 0.00 0.00 0.00 31 1011.6
20260504001632 22 141 0.0 0.0 0.00 0.00 0.00 31 1011.8
20260504001127 23 156 3.2 4.8 0.00 0.00 0.00 30 1011.9
20260504000625 22 185 0.0 0.0 0.00 0.00 0.00 30 1011.9
20260504000122 23 127 0.0 0.0 0.00 0.00 0.00 30 1011.9
20260503235620 23 189 0.0 0.0 0.00 0.00 0.00 29 1012.1
20260503235116 23 189 0.0 0.0 0.00 0.00 0.00 29 1012.3
20260503234615 22 180 0.0 0.0 0.00 0.00 0.00 30 1012.2
20260503234112 23 179 6.4 9.7 0.00 0.00 0.00 29 1012.4
20260503233609 23 155 0.0 0.0 0.00 0.00 0.00 28 1012.2
20260503233104 23 121 0.0 0.0 0.00 0.00 0.00 28 1012.3
20260503232601 23 189 0.0 0.0 0.00 0.00 0.00 28 1012.3
20260503232059 23 188 0.0 0.0 0.00 0.00 0.00 29 1012.5
20260503231556 22 119 0.0 0.0 0.00 0.00 0.00 29 1012.4
20260503231053 23 13 0.0 0.0 0.00 0.00 0.00 29 1012.3
20260503230549 23 54 0.0 0.0 0.00 0.00 0.00 29 1012.6
20260503230047 23 96 0.0 0.0 0.00 0.00 0.00 29 1012.6
20260503225544 22 30 0.0 0.0 0.00 0.00 0.00 29 1012.7
20260503225039 23 349 0.0 0.0 0.00 0.00 0.00 29 1012.6
20260503224537 23 37 0.0 0.0 0.00 0.00 0.00 29 1012.5
20260503224035 23 112 0.0 0.0 0.00 0.00 0.00 28 1012.9
20260503223533 23 53 1.6 1.6 0.00 0.00 0.00 28 1012.8
20260503223028 23 159 0.0 0.0 0.00 0.00 0.00 28 1013.1
20260503222526 24 344 0.0 0.0 0.00 0.00 0.00 27 1013.2
20260503222024 23 297 0.0 0.0 0.00 0.00 0.00 28 1013.2
20260503221522 23 294 0.0 0.0 0.00 0.00 0.00 29 1013.1
20260503221019 23 337 3.2 4.8 0.00 0.00 0.00 30 1013.4
20260503220515 23 20 3.2 4.8 0.00 0.00 0.00 29 1013.3
20260503220012 23 358 0.0 0.0 0.00 0.00 0.00 31 1013.4
20260503215509 23 249 0.0 0.0 0.00 0.00 0.00 29 1013.5
20260503215006 23 70 0.0 0.0 0.00 0.00 0.00 30 1013.4
20260503214504 23 343 0.0 0.0 0.00 0.00 0.00 29 1013.5
20260503214001 23 9 3.2 4.8 0.00 0.00 0.00 30 1013.8
20260503213459 22 340 0.0 0.0 0.00 0.00 0.00 32 1014.0
20260503212955 23 85 0.0 0.0 0.00 0.00 0.00 30 1013.9
20260503212453 23 67 1.6 4.8 0.00 0.00 0.00 30 1014.0
20260503211950 23 1 0.0 0.0 0.00 0.00 0.00 30 1013.8
20260503211447 24 306 0.0 0.0 0.00 0.00 0.00 29 1013.8
20260503210942 23 229 0.0 0.0 0.00 0.00 0.00 28 1014.4
20260503210439 23 18 0.0 0.0 0.00 0.00 0.00 29 1014.3
20260503205934 23 135 0.0 0.0 0.00 0.00 0.00 29 1014.1
20260503205432 22 8 0.0 0.0 0.00 0.00 0.00 30 1014.3
20260503204927 22 288 0.0 0.0 0.00 0.00 0.00 30 1014.4
20260503204425 23 77 0.0 1.6 0.00 0.00 0.00 29 1014.4
20260503203922 23 29 0.0 0.0 0.00 0.00 0.00 30 1014.4
20260503203419 23 83 0.0 0.0 0.00 0.00 0.00 29 1014.5
20260503202916 23 13 4.8 8.0 0.00 0.00 0.00 29 1014.7
20260503202414 22 117 0.0 0.0 0.00 0.00 0.00 31 1014.7
20260503201913 23 344 0.0 0.0 0.00 0.00 0.00 30 1014.7
20260503201409 22 153 0.0 1.6 0.00 0.00 0.00 30 1014.8
20260503200907 23 96 4.8 9.7 0.00 0.00 0.00 30 1014.6
20260503200403 23 96 0.0 0.0 0.00 0.00 0.00 30 1014.7
20260503195900 23 93 0.0 0.0 0.00 0.00 0.00 30 1014.7
20260503195356 22 68 0.0 0.0 0.00 0.00 0.00 29 1014.9
20260503194853 22 51 0.0 0.0 0.00 0.00 0.00 30 1015.1
20260503194350 22 138 0.0 0.0 0.00 0.00 0.00 30 1015.1
20260503193846 22 38 0.0 0.0 0.00 0.00 0.00 30 1014.8
20260503193341 22 152 0.0 0.0 0.00 0.00 0.00 30 1015.0
20260503192838 22 165 6.4 14.5 0.00 0.00 0.00 31 1015.0
20260503192333 22 69 6.4 11.3 0.00 0.00 0.00 32 1015.2
20260503191830 22 136 1.6 4.8 0.00 0.00 0.00 30 1015.0
20260503191327 22 46 0.0 1.6 0.00 0.00 0.00 31 1015.1
20260503190824 22 107 0.0 0.0 0.00 0.00 0.00 31 1015.2
20260503190321 23 68 0.0 0.0 0.00 0.00 0.00 31 1015.4
20260503185818 22 144 0.0 0.0 0.00 0.00 0.00 30 1015.6
20260503185313 22 111 3.2 8.0 0.00 0.00 0.00 30 1015.6
20260503184808 22 39 4.8 9.7 0.00 0.00 0.00 31 1015.3
20260503184305 22 213 0.0 0.0 0.00 0.00 0.00 30 1015.6
20260503183800 22 19 1.6 3.2 0.00 0.00 0.00 32 1015.9
20260503183258 22 109 0.0 0.0 0.00 0.00 0.00 31 1015.8
20260503182755 21 65 0.0 0.0 0.00 0.00 0.00 31 1016.0
20260503182254 21 63 0.0 0.0 0.00 0.00 0.00 33 1016.1
20260503181750 21 126 8.0 9.7 0.00 0.00 0.00 31 1016.0
20260503181248 22 18 6.4 9.7 0.00 0.00 0.00 31 1016.2
20260503180744 22 121 0.0 1.6 0.00 0.00 0.00 32 1016.1
20260503180242 21 97 1.6 3.2 0.00 0.00 0.00 32 1016.2
20260503175738 22 115 1.6 4.8 0.00 0.00 0.00 31 1016.5
20260503175236 21 70 0.0 1.6 0.00 0.00 0.00 31 1016.6
20260503174731 22 97 0.0 0.0 0.00 0.00 0.00 31 1016.5
20260503174230 22 118 0.0 0.0 0.00 0.00 0.00 32 1016.4
20260503173725 21 76 0.0 0.0 0.00 0.00 0.00 32 1016.4
20260503173221 21 333 4.8 12.9 0.00 0.00 0.00 34 1017.0
20260503172718 21 151 0.0 3.2 0.00 0.00 0.00 32 1017.1
20260503172215 21 138 6.4 9.7 0.00 0.00 0.00 32 1017.1
20260503171711 21 22 0.0 0.0 0.00 0.00 0.00 33 1017.2
20260503171209 21 86 4.8 9.7 0.00 0.00 0.00 34 1017.1
20260503170706 21 150 0.0 0.0 0.00 0.00 0.00 33 1017.2
20260503170203 21 56 0.0 0.0 0.00 0.00 0.00 33 1017.1